Kezdőlap
METAR-TAF:

METAR-TAF

Repülőterek :

Storm Lake Municipal Airport

Storm Lake, Iowa, Amerikai Egyesült Államok

földrajzi szélesség: 42-36N, földrajzi hosszúság: 095-14W, magasság: 454 m

Jelenlegi meteorológiai megfigyelések

A jelentés 12 perccel ezelõtt készült, 17:35 UTC
Észak-északnyugati szél 11 kt széllökések: 18 kt
Hőmérséklet 7°C
Páratartalom 61%
Légköri nyomás 1021 hPa
Látótávolság: 16.1 km

METAR: KSLB 181735Z AUTO 33011G18KT 10SM 07/00 A3015 RMK AO2

Idő: 12:47 (17:47 UTC)


TAF: hiányzik

Meteorológiai megfigyelések és előrejelzések több, mint 4000 repülőtéren (METAR és TAF jelentéseket).

A térképen piros és sárga pontok jelzik az elérhető meteorológiai állomásokat.

Mozgassa az egeret a pont fölött, hogy megjelenjen az állomás neve.

Azután kattintson az időjárási megfigyelések és előrejelzések megtekintéséhez.

A térkép megváltoztatása: kattintson a fekete keresztel jelölt zöld gombra ráközelítéshez, a vonallal jelölt zöld gombra távolításhoz, vagy a zöld nyilakra a szomszédos térképek eléréséhez.


METAR-TAF: